FW0705 Weather Reports


time (UTC)temp
C
wind
direction
speed
KPH
gust
KPH
rain 1hr
cm
rain 24hr
cm
rain mn
cm
humidity
%
barometer
mb
20260507173401 13 148 1.6 9.7 0.00 0.00 0.00 60 1013.7
20260507171751 13 190 3.2 9.7 0.00 0.00 0.00 58 1013.7
20260507163356 14 157 4.8 14.5 0.00 0.00 0.00 58 1013.6
20260507160357 13 139 3.2 14.5 0.00 0.00 0.00 56 1013.7
20260507153352 13 78 3.2 11.3 0.00 0.00 0.00 59 1013.8
20260507150352 13 148 3.2 12.9 0.00 0.00 0.00 59 1014.0
20260507143351 13 200 3.2 14.5 0.00 0.00 0.00 60 1014.2
20260507133352 13 226 1.6 11.3 0.00 0.00 0.00 60 1014.5
20260507130351 13 109 3.2 16.1 0.00 0.00 0.00 61 1014.6
20260507123352 13 113 3.2 12.9 0.00 0.00 0.00 63 1014.7
20260507120351 12 186 4.8 14.5 0.00 0.00 0.00 65 1014.9
20260507113351 12 124 4.8 12.9 0.00 0.00 0.00 67 1015.0
20260507110404 11 192 3.2 12.9 0.00 0.00 0.00 68 1015.1
20260507103351 11 88 3.2 12.9 0.00 0.00 0.00 71 1015.3
20260507101726 10 132 3.2 9.7 0.00 0.00 0.00 78 1015.2
20260507093348 9 209 3.2 11.3 0.00 0.00 0.00 82 1015.2
20260507090347 8 106 3.2 14.5 0.00 0.00 0.00 84 1015.2
20260507083347 7 76 1.6 11.3 0.00 0.00 0.00 86 1015.2
20260507080346 7 127 3.2 11.3 0.00 0.00 0.00 87 1015.3
20260507073345 6 106 3.2 11.3 0.00 0.00 0.00 89 1015.3
20260507070345 6 98 1.6 9.7 0.00 0.00 0.00 90 1015.1
20260507063346 6 184 1.6 8.0 0.00 0.00 0.00 90 1015.0
20260507061720 6 123 1.6 11.3 0.00 0.00 0.00 91 1014.9
20260507053345 5 173 1.6 8.0 0.00 0.00 0.00 92 1014.9
20260507050345 4 96 0.0 0.0 0.00 0.00 0.00 92 1014.8
20260507043345 4 96 0.0 3.2 0.00 0.00 0.00 91 1014.8
20260507040345 5 96 0.0 6.4 0.00 0.00 0.00 90 1014.7
20260507033346 5 96 1.6 6.4 0.00 0.00 0.00 89 1014.8
20260507031731 5 128 1.6 4.8 0.00 0.00 0.00 88 1014.9
20260507023345 5 140 0.0 8.0 0.00 0.00 0.00 88 1014.9
20260507021724 5 196 1.6 8.0 0.00 0.00 0.00 87 1014.9
20260507013343 5 96 1.6 9.7 0.00 0.00 0.00 88 1014.9
20260507010342 5 76 0.0 6.4 0.00 0.00 0.00 89 1015.2
20260507003341 5 90 3.2 6.4 0.00 0.00 0.00 89 1015.2
20260507000343 5 161 1.6 8.0 0.00 0.00 0.00 88 1015.3
20260506233340 5 163 1.6 8.0 0.00 0.00 0.00 88 1015.4
20260506230337 5 190 3.2 11.3 0.00 0.00 0.00 87 1015.4
20260506223336 5 84 3.2 14.5 0.00 0.00 0.00 86 1015.4
20260506220336 5 120 3.2 12.9 0.00 0.00 0.00 85 1015.2
20260506213336 6 114 3.2 11.3 0.00 0.00 0.00 85 1015.1
20260506210338 6 83 1.6 9.7 0.00 0.00 0.00 83 1015.0
20260506203336 6 132 3.2 8.0 0.00 0.00 0.00 81 1014.8
20260506200338 7 126 1.6 8.0 0.00 0.00 0.00 79 1014.5
20260506193336 7 205 3.2 12.9 0.00 0.00 0.00 77 1014.2
20260506190337 8 139 4.8 12.9 0.00 0.00 0.00 75 1014.1
20260506183335 9 123 3.2 14.5 0.00 0.00 0.00 71 1014.0
20260506180337 9 120 3.2 11.3 0.00 0.00 0.00 71 1014.1